Time,TemperatureF,DewpointF,PressureIn,WindDirection,WindDirectionDegrees,WindSpeedMPH,WindSpeedGustMPH,Humidity,HourlyPrecipIn,Conditions,Clouds,dailyrainin,SoftwareType,DateUTC
2013-02-27 00:05:00,31.9,28.0,30.20,WNW,300,0.0,2.0,86,0.00,,,0.00,weatherlink.com 1.10,2013-02-27 05:05:00,
2013-02-27 00:20:00,32.0,28.0,30.20,West,269,0.0,1.0,86,0.00,,,0.00,weatherlink.com 1.10,2013-02-27 05:20:00,
2013-02-27 00:35:00,31.8,29.0,30.19,North,360,0.0,1.0,88,0.00,,,0.00,weatherlink.com 1.10,2013-02-27 05:35:00,
2013-02-27 00:50:00,31.8,28.0,30.18,WNW,283,0.0,4.0,87,0.00,,,0.00,weatherlink.com 1.10,2013-02-27 05:50:00,
2013-02-27 01:05:00,32.4,29.0,30.18,NNW,342,0.0,2.0,86,0.00,,,0.00,weatherlink.com 1.10,2013-02-27 06:05:00,
2013-02-27 01:20:00,32.4,29.0,30.17,West,281,0.0,2.0,87,0.00,,,0.00,weatherlink.com 1.10,2013-02-27 06:20:00,
2013-02-27 01:35:00,32.7,29.0,30.17,WNW,294,1.0,3.0,86,0.00,,,0.00,weatherlink.com 1.10,2013-02-27 06:35:00,
2013-02-27 01:50:00,32.9,29.0,30.14,NW,316,2.0,4.0,86,0.00,,,0.00,weatherlink.com 1.10,2013-02-27 06:50:00,
2013-02-27 02:05:00,33.0,29.0,30.14,WNW,285,0.0,4.0,86,0.00,,,0.00,weatherlink.com 1.10,2013-02-27 07:05:00,
2013-02-27 02:20:00,33.0,29.0,30.14,NNW,345,0.0,3.0,86,0.00,,,0.00,weatherlink.com 1.10,2013-02-27 07:20:00,
2013-02-27 02:35:00,33.2,29.0,30.13,NNW,330,0.0,4.0,85,0.00,,,0.00,weatherlink.com 1.10,2013-02-27 07:35:00,
2013-02-27 02:50:00,33.4,29.0,30.13,NW,308,0.0,4.0,85,0.00,,,0.00,weatherlink.com 1.10,2013-02-27 07:50:00,
2013-02-27 03:05:00,33.6,29.0,30.14,NNW,345,1.0,5.0,84,0.00,,,0.00,weatherlink.com 1.10,2013-02-27 08:05:00,
2013-02-27 03:20:00,33.6,30.0,30.13,NNW,338,1.0,3.0,85,0.00,,,0.00,weatherlink.com 1.10,2013-02-27 08:20:00,
2013-02-27 03:35:00,33.6,30.0,30.13,North,350,0.0,3.0,85,0.00,,,0.00,weatherlink.com 1.10,2013-02-27 08:35:00,
2013-02-27 03:50:00,33.2,30.0,30.13,North,11,2.0,2.0,88,0.00,,,0.00,weatherlink.com 1.10,2013-02-27 08:50:00,
2013-02-27 04:05:00,32.7,30.0,30.12,WNW,285,1.0,2.0,90,0.00,,,0.00,weatherlink.com 1.10,2013-02-27 09:05:00,
2013-02-27 04:20:00,32.4,30.0,30.09,NNE,13,1.0,3.0,92,0.00,,,0.00,weatherlink.com 1.10,2013-02-27 09:20:00,
2013-02-27 04:35:00,32.3,31.0,30.11,NNW,335,1.0,2.0,93,0.00,,,0.00,weatherlink.com 1.10,2013-02-27 09:35:00,
2013-02-27 04:50:00,32.2,30.0,30.09,West,274,0.0,3.0,93,0.00,,,0.00,weatherlink.com 1.10,2013-02-27 09:50:00,
2013-02-27 05:05:00,32.0,31.0,30.09,NNW,340,0.0,3.0,94,0.00,,,0.00,weatherlink.com 1.10,2013-02-27 10:05:00,
2013-02-27 05:20:00,31.9,30.0,30.08,NW,326,0.0,2.0,94,0.00,,,0.00,weatherlink.com 1.10,2013-02-27 10:20:00,
2013-02-27 05:35:00,31.9,31.0,30.07,WNW,297,0.0,1.0,95,0.00,,,0.00,weatherlink.com 1.10,2013-02-27 10:35:00,
2013-02-27 05:51:00,32.1,31.0,30.07,NW,323,1.0,1.0,95,0.00,,,0.00,weatherlink.com 1.10,2013-02-27 10:51:00,
2013-02-27 06:06:00,32.3,31.0,30.06,NW,316,0.0,3.0,95,0.00,,,0.00,weatherlink.com 1.10,2013-02-27 11:06:00,
2013-02-27 06:21:00,32.5,31.0,30.05,West,278,1.0,2.0,95,0.00,,,0.00,weatherlink.com 1.10,2013-02-27 11:21:00,
2013-02-27 06:36:00,32.5,31.0,30.04,West,277,0.0,2.0,95,0.00,,,0.00,weatherlink.com 1.10,2013-02-27 11:36:00,
2013-02-27 06:51:00,32.5,31.0,30.05,NW,314,0.0,2.0,95,0.00,,,0.00,weatherlink.com 1.10,2013-02-27 11:51:00,
2013-02-27 07:06:00,32.6,31.0,30.03,WSW,256,0.0,1.0,95,0.00,,,0.00,weatherlink.com 1.10,2013-02-27 12:06:00,
2013-02-27 07:36:00,32.8,32.0,30.01,ENE,70,1.0,2.0,95,0.00,,,0.00,weatherlink.com 1.10,2013-02-27 12:36:00,
2013-02-27 07:51:00,33.0,32.0,30.00,NNW,338,1.0,3.0,95,0.00,,,0.00,weatherlink.com 1.10,2013-02-27 12:51:00,
2013-02-27 08:06:00,33.2,32.0,30.00,West,271,2.0,5.0,95,0.00,,,0.00,weatherlink.com 1.10,2013-02-27 13:06:00,
2013-02-27 08:21:00,33.3,32.0,29.99,NE,53,2.0,4.0,96,0.00,,,0.00,weatherlink.com 1.10,2013-02-27 13:21:00,
2013-02-27 08:36:00,33.6,32.0,29.98,NNE,22,1.0,6.0,95,0.00,,,0.00,weatherlink.com 1.10,2013-02-27 13:36:00,
2013-02-27 08:51:00,33.6,32.0,29.97,NE,49,2.0,5.0,95,0.00,,,0.00,weatherlink.com 1.10,2013-02-27 13:51:00,
2013-02-27 09:06:00,33.8,33.0,29.96,North,350,2.0,4.0,95,0.00,,,0.00,weatherlink.com 1.10,2013-02-27 14:06:00,
2013-02-27 09:21:00,34.1,33.0,29.95,North,349,2.0,6.0,96,0.00,,,0.00,weatherlink.com 1.10,2013-02-27 14:21:00,
2013-02-27 09:36:00,34.3,33.0,29.94,SE,141,2.0,6.0,96,0.00,,,0.00,weatherlink.com 1.10,2013-02-27 14:36:00,
2013-02-27 09:51:00,34.7,34.0,29.93,ESE,115,1.0,5.0,96,0.00,,,0.00,weatherlink.com 1.10,2013-02-27 14:51:00,
2013-02-27 10:21:00,35.1,34.0,29.93,NNE,30,1.0,6.0,95,0.03,,,0.03,weatherlink.com 1.10,2013-02-27 15:21:00,
2013-02-27 10:36:00,35.5,34.0,29.91,SE,146,0.0,4.0,95,0.08,,,0.08,weatherlink.com 1.10,2013-02-27 15:36:00,
2013-02-27 10:51:00,36.0,35.0,29.91,WSW,257,1.0,5.0,95,0.13,,,0.13,weatherlink.com 1.10,2013-02-27 15:51:00,
2013-02-27 11:06:00,36.5,35.0,29.90,WSW,255,1.0,7.0,95,0.15,,,0.16,weatherlink.com 1.10,2013-02-27 16:06:00,
2013-02-27 11:21:00,36.8,36.0,29.89,WNW,293,1.0,9.0,95,0.15,,,0.19,weatherlink.com 1.10,2013-02-27 16:21:00,
2013-02-27 11:36:00,37.3,36.0,29.88,NW,310,2.0,10.0,95,0.13,,,0.22,weatherlink.com 1.10,2013-02-27 16:36:00,
2013-02-27 11:51:00,37.4,36.0,29.87,SE,131,2.0,7.0,94,0.13,,,0.26,weatherlink.com 1.10,2013-02-27 16:51:00,
2013-02-27 12:06:00,37.3,36.0,29.86,NW,309,3.0,10.0,94,0.13,,,0.29,weatherlink.com 1.10,2013-02-27 17:06:00,
2013-02-27 12:21:00,37.2,36.0,29.86,SW,214,1.0,8.0,94,0.13,,,0.32,weatherlink.com 1.10,2013-02-27 17:21:00,
2013-02-27 12:36:00,37.0,36.0,29.84,NNW,335,3.0,9.0,94,0.13,,,0.35,weatherlink.com 1.10,2013-02-27 17:36:00,
2013-02-27 12:52:00,36.8,35.0,29.83,WNW,285,1.0,11.0,94,0.12,,,0.38,weatherlink.com 1.10,2013-02-27 17:52:00,
2013-02-27 13:07:00,36.5,35.0,29.83,SSE,156,1.0,5.0,94,0.12,,,0.41,weatherlink.com 1.10,2013-02-27 18:07:00,
2013-02-27 13:22:00,36.2,35.0,29.82,WNW,294,2.0,8.0,94,0.12,,,0.44,weatherlink.com 1.10,2013-02-27 18:22:00,
2013-02-27 13:52:00,35.2,34.0,29.82,WNW,295,9.0,13.0,94,0.11,,,0.49,weatherlink.com 1.10,2013-02-27 18:52:00,
2013-02-27 14:07:00,34.7,33.0,29.82,WSW,246,4.0,7.0,94,0.10,,,0.51,weatherlink.com 1.10,2013-02-27 19:07:00,
2013-02-27 14:22:00,34.2,33.0,29.82,NNW,337,2.0,3.0,94,0.08,,,0.52,weatherlink.com 1.10,2013-02-27 19:22:00,
2013-02-27 14:37:00,33.9,32.0,29.82,NNW,344,1.0,5.0,94,0.05,,,0.52,weatherlink.com 1.10,2013-02-27 19:37:00,
2013-02-27 14:52:00,33.6,32.0,29.81,NW,318,1.0,6.0,94,0.04,,,0.53,weatherlink.com 1.10,2013-02-27 19:52:00,
2013-02-27 15:07:00,33.2,32.0,29.81,WNW,284,3.0,5.0,94,0.02,,,0.53,weatherlink.com 1.10,2013-02-27 20:07:00,
2013-02-27 15:22:00,33.1,32.0,29.81,NE,46,1.0,7.0,95,0.01,,,0.53,weatherlink.com 1.10,2013-02-27 20:22:00,
2013-02-27 15:37:00,33.0,32.0,29.80,West,262,0.0,6.0,95,0.01,,,0.53,weatherlink.com 1.10,2013-02-27 20:37:00,
2013-02-27 15:52:00,32.9,32.0,29.79,North,349,1.0,4.0,95,0.00,,,0.53,weatherlink.com 1.10,2013-02-27 20:52:00,
2013-02-27 16:07:00,32.7,32.0,29.78,NE,34,1.0,3.0,95,0.00,,,0.53,weatherlink.com 1.10,2013-02-27 21:07:00,
2013-02-27 16:22:00,32.7,32.0,29.77,NNW,347,1.0,4.0,95,0.00,,,0.53,weatherlink.com 1.10,2013-02-27 21:22:00,
2013-02-27 16:37:00,32.7,32.0,29.77,East,81,1.0,4.0,95,0.00,,,0.53,weatherlink.com 1.10,2013-02-27 21:37:00,
2013-02-27 16:52:00,32.5,31.0,29.76,NW,309,0.0,6.0,95,0.00,,,0.53,weatherlink.com 1.10,2013-02-27 21:52:00,
2013-02-27 17:07:00,32.4,31.0,29.76,SSW,204,0.0,4.0,95,0.00,,,0.53,weatherlink.com 1.10,2013-02-27 22:07:00,
2013-02-27 17:22:00,32.4,31.0,29.76,NNW,346,1.0,3.0,95,0.00,,,0.53,weatherlink.com 1.10,2013-02-27 22:22:00,
2013-02-27 17:37:00,32.3,31.0,29.76,NNW,331,0.0,3.0,95,0.00,,,0.53,weatherlink.com 1.10,2013-02-27 22:37:00,
2013-02-27 17:52:00,32.3,31.0,29.76,NNW,338,2.0,3.0,95,0.00,,,0.53,weatherlink.com 1.10,2013-02-27 22:52:00,
2013-02-27 18:07:00,32.3,31.0,29.75,SSW,205,0.0,3.0,95,0.01,,,0.54,weatherlink.com 1.10,2013-02-27 23:07:00,
2013-02-27 18:22:00,32.3,31.0,29.75,NNE,12,0.0,5.0,95,0.01,,,0.54,weatherlink.com 1.10,2013-02-27 23:22:00,
2013-02-27 18:37:00,32.2,31.0,29.75,ENE,58,1.0,7.0,95,0.01,,,0.54,weatherlink.com 1.10,2013-02-27 23:37:00,
2013-02-27 18:52:00,32.2,31.0,29.74,East,101,2.0,3.0,95,0.01,,,0.54,weatherlink.com 1.10,2013-02-27 23:52:00,
2013-02-27 19:07:00,32.2,31.0,29.74,WNW,283,0.0,4.0,95,0.00,,,0.54,weatherlink.com 1.10,2013-02-28 00:07:00,
2013-02-27 19:22:00,32.1,31.0,29.72,North,11,0.0,3.0,96,0.00,,,0.54,weatherlink.com 1.10,2013-02-28 00:22:00,
2013-02-27 19:37:00,32.1,31.0,29.70,NW,307,1.0,3.0,96,0.00,,,0.54,weatherlink.com 1.10,2013-02-28 00:37:00,
2013-02-27 19:52:00,32.0,31.0,29.69,WNW,288,2.0,4.0,96,0.00,,,0.54,weatherlink.com 1.10,2013-02-28 00:52:00,
2013-02-27 20:07:00,32.0,31.0,29.70,WSW,257,0.0,4.0,95,0.00,,,0.54,weatherlink.com 1.10,2013-02-28 01:07:00,
2013-02-27 20:22:00,32.0,31.0,29.70,WNW,283,0.0,3.0,95,0.00,,,0.54,weatherlink.com 1.10,2013-02-28 01:22:00,
2013-02-27 20:37:00,32.0,31.0,29.70,WNW,293,0.0,2.0,96,0.00,,,0.54,weatherlink.com 1.10,2013-02-28 01:37:00,
2013-02-27 20:52:00,32.0,31.0,29.69,North,359,0.0,4.0,96,0.00,,,0.54,weatherlink.com 1.10,2013-02-28 01:52:00,
2013-02-27 21:07:00,32.1,31.0,29.69,West,277,1.0,2.0,96,0.00,,,0.54,weatherlink.com 1.10,2013-02-28 02:07:00,
2013-02-27 21:22:00,32.1,31.0,29.68,NNE,29,0.0,1.0,96,0.00,,,0.54,weatherlink.com 1.10,2013-02-28 02:22:00,
2013-02-27 21:37:00,32.1,31.0,29.68,NNW,340,0.0,1.0,96,0.01,,,0.55,weatherlink.com 1.10,2013-02-28 02:37:00,
2013-02-27 21:52:00,32.0,31.0,29.67,NE,51,0.0,3.0,96,0.01,,,0.55,weatherlink.com 1.10,2013-02-28 02:52:00,
2013-02-27 22:07:00,31.9,31.0,29.66,NNE,16,0.0,1.0,96,0.01,,,0.55,weatherlink.com 1.10,2013-02-28 03:07:00,
2013-02-27 22:22:00,31.9,31.0,29.65,East,101,0.0,1.0,96,0.01,,,0.55,weatherlink.com 1.10,2013-02-28 03:22:00,
2013-02-27 22:37:00,31.9,31.0,29.65,NNE,32,1.0,5.0,96,0.00,,,0.55,weatherlink.com 1.10,2013-02-28 03:37:00,
2013-02-27 22:53:00,32.0,31.0,29.64,NNW,339,2.0,3.0,96,0.00,,,0.55,weatherlink.com 1.10,2013-02-28 03:53:00,
2013-02-27 23:08:00,32.1,31.0,29.64,NW,305,1.0,3.0,96,0.00,,,0.55,weatherlink.com 1.10,2013-02-28 04:08:00,
2013-02-27 23:23:00,32.0,31.0,29.64,NW,325,1.0,3.0,96,0.00,,,0.55,weatherlink.com 1.10,2013-02-28 04:23:00,
2013-02-27 23:38:00,31.8,31.0,29.64,NE,36,0.0,1.0,95,0.00,,,0.55,weatherlink.com 1.10,2013-02-28 04:38:00,
2013-02-27 23:53:00,31.5,30.0,29.63,NNW,330,1.0,2.0,95,0.00,,,0.55,weatherlink.com 1.10,2013-02-28 04:53:00,